Zurück zum Katalog

CZ-6A DEB

AktivSSO
NORAD 56236·DEBRIS·🇨🇳 China

Gestartet Nov 11, 2022 von Taiyuan Satellite Launch Center

Loading…

Nächste Überflüge (nächste 24 Stunden)

TLE

AktuellSource: Space-Track

Epoche: Sep 14, 2026, 00:34 UTC

1 56236U 22151ABC 26257.02382780  .00003335  00000-0  91685-3 0  9991
2 56236  98.5926 285.3608 0068094 116.9003 243.9168 14.46287742189491

Verfolge CZ-6A DEB in Echtzeit mit AllMySat

Download on the App Store